Location: Ch�tillon
(48.8024°N, 2.2935°E)
Time: 09:31:30
(UTC+00:00)

Cosmos 1697 Rocket - Pass Details

Date: 01 June 2022
Orbit: 833 x 843 km, 71.0° (Epoch: 02 July)

Event Time Altitude Azimuth Distance (km) Brightness Sun altitude
Rises 20:48:25 0° 252° (WSW) 3,396 6.2 -8.5°
Reaches altitude 10° 20:51:23 10° 267° (W) 2,464 5.7 -8.8°
Maximum altitude 20:55:47 23° 318° (NW) 1,737 5.5 -9.3°
Drops below altitude 10° 21:00:12 10° 9° (N) 2,470 5.8 -9.7°
Sets 21:03:12 0° 25° (NNE) 3,407 6.2 -10.0°
